Stations météo

réclame
Mon MeteoGroup
Krångede, Suède (2247): Température de l'air & dewpoint: 17.10.2018 22:00:00 - 23.10.2018 22:00:00 (CEST)Krångede, Suède (2247): Vitesse du vent & gusts: 17.10.2018 22:00:00 - 23.10.2018 22:00:00 (CEST)Krångede, Suède (2247): Direction du vent: 17.10.2018 22:00:00 - 23.10.2018 22:00:00 (CEST)Krångede, Suède (2247): reduced air pressure: 17.10.2018 22:00:00 - 23.10.2018 22:00:00 (CEST)Krångede, Suède (2247): visibility: 17.10.2018 22:00:00 - 23.10.2018 22:00:00 (CEST)Krångede, Suède (2247): Quantités de précipitations: 17.10.2018 22:00:00 - 23.10.2018 22:00:00 (CEST)
Date & Time tt [°C] td [°C] ff [km/h] ff [knt] fx [km/h] fx [knt] dd ppp [hPa] vv [km] rr [mm]
23.10.2018 22:00:00 0,2 -4,1 6 3 17 9 WNW 995,9 50 0,0
23.10.2018 21:00:00 0,6 -3,1 8 4 27 15 WNW 995,1 50 0,0
23.10.2018 20:00:00 1,4 -2,5 9 5 27 15 WNW 994,4 50 0,0
23.10.2018 19:00:00 2,1 -1,7 11 6 23 13 WNW 993,6 50 0,0
23.10.2018 18:00:00 1,5 -1,2 3 1 16 9 WNW 993,0 50 0,0
23.10.2018 17:00:00 1,8 -1,1 2 1 16 9 W 992,5 50 0,0
23.10.2018 16:00:00 2,1 -1,0 4 2 13 7 W 992,0 21 0,0
23.10.2018 15:00:00 2,7 -0,9 5 3 13 7 W 991,8 16 0,0
23.10.2018 14:00:00 2,7 -1,5 2 1 6 3 NNW 991,8 50 0,0
23.10.2018 13:00:00 2,2 -1,8 3 2 5 3 SSW 992,0 50 0,0
23.10.2018 12:00:00 1,9 -2,8 0 0 4 2 N 992,1 50 0,0
23.10.2018 11:00:00 0,3 -3,3 0 0 5 3 N 992,4 50 0,0
23.10.2018 10:00:00 -0,8 -3,8 0 0 5 3 N 992,0 50 0,0
23.10.2018 09:00:00 -1,3 -4,6 0 0 5 3 N 992,2 50 0,0
23.10.2018 08:00:00 -1,9 -4,7 0 0 4 2 N 992,1 50 0,0
23.10.2018 07:00:00 -1,8 -4,5 0 0 4 2 N 992,3 50 0,0
23.10.2018 06:00:00 -4,5 -6,8 0 0 4 2 N 992,8 50 0,0
23.10.2018 05:00:00 - - - - 11 6 - - - -
23.10.2018 04:00:00 -1,4 -4,2 3 1 11 6 NW 994,3 50 0,0
23.10.2018 03:00:00 0,1 -3,5 3 2 15 8 E 995,5 50 0,0
23.10.2018 02:00:00 0,7 -3,0 5 3 15 8 ENE 996,9 50 0,0
23.10.2018 01:00:00 -0,1 -3,1 2 1 13 7 NW 998,4 50 0,0
23.10.2018 00:00:00 -0,3 -3,8 3 1 9 5 E 999,7 50 0,0
22.10.2018 23:00:00 -0,8 -3,8 3 2 7 4 W 1001,0 50 0,0
22.10.2018 22:00:00 0,2 -3,4 2 1 24 13 NNW 1002,0 50 0,0
22.10.2018 21:00:00 2,4 -2,9 3 2 25 13 W 1002,8 50 0,0
22.10.2018 20:00:00 3,2 -2,3 8 4 32 17 W 1003,4 50 0,0
22.10.2018 19:00:00 4,1 -1,5 14 8 46 25 WNW 1003,8 50 0,0
22.10.2018 18:00:00 4,7 -1,7 15 8 46 25 WNW 1004,1 43 0,0
22.10.2018 17:00:00 5,1 -1,4 14 8 49 26 W 1003,8 50 0,0
22.10.2018 16:00:00 6,3 -0,9 18 10 49 26 W 1003,5 50 0,0
22.10.2018 15:00:00 6,9 -1,3 12 7 35 19 W 1003,1 50 0,0
22.10.2018 14:00:00 6,4 -1,3 13 7 37 20 W 1003,0 50 0,0
22.10.2018 13:00:00 6,3 -1,6 12 7 37 20 W 1002,9 50 0,0
22.10.2018 12:00:00 6,1 -1,8 12 6 32 17 W 1003,0 44 0,0
22.10.2018 11:00:00 5,6 -0,9 6 4 17 9 WSW 1003,3 39 0,0
22.10.2018 10:00:00 4,0 -1,4 0 0 - - N 1003,7 50 0,0
22.10.2018 09:00:00 0,4 -2,5 2 1 - - S 1004,0 41 -
22.10.2018 08:00:00 1,3 -2,5 0 0 14 8 N 1003,7 50 0,0
22.10.2018 07:00:00 2,3 -1,5 4 2 17 9 W 1003,8 50 0,0
22.10.2018 06:00:00 2,4 -1,6 4 2 17 9 WSW 1004,3 40 0,0
22.10.2018 05:00:00 2,6 -0,8 4 2 11 6 W 1004,3 37 0,0
22.10.2018 04:00:00 2,6 -0,7 3 2 14 8 W 1004,4 50 0,0
22.10.2018 03:00:00 3,6 0,5 6 3 25 13 WNW 1004,6 50 0,0
22.10.2018 02:00:00 4,7 1,7 9 5 25 13 WNW 1004,0 50 0,0
22.10.2018 01:00:00 5,0 2,0 10 5 20 11 W 1003,5 50 0,0
22.10.2018 00:00:00 4,1 1,8 0 0 22 12 N 1003,5 40 0,0
21.10.2018 23:00:00 5,6 2,4 5 3 22 12 WNW 1003,8 17 0,0
21.10.2018 22:00:00 5,8 2,8 5 3 20 11 W 1003,7 7 0,0
21.10.2018 21:00:00 5,8 3,5 2 1 6 3 W 1004,3 4,3 0,0
21.10.2018 20:00:00 5,8 4,0 0 0 5 3 N 1004,4 7 0,0
21.10.2018 19:00:00 6,2 3,5 0 0 4 2 N 1005,5 18 0,0
21.10.2018 18:00:00 6,3 3,3 0 0 4 2 N 1005,8 20 0,0
21.10.2018 17:00:00 6,5 4,0 2 1 9 5 NNW 1006,4 50 0,0
21.10.2018 16:00:00 7,1 4,2 0 0 9 5 N 1007,1 50 0,0
21.10.2018 15:00:00 7,3 3,5 0 0 10 5 N 1007,5 50 0,0
21.10.2018 14:00:00 7,7 4,1 0 0 10 5 N 1007,7 50 0,0
21.10.2018 13:00:00 6,5 3,6 5 3 12 7 ENE 1008,8 50 0,0
21.10.2018 12:00:00 6,6 3,4 3 2 14 7 SE 1009,3 50 0,0
21.10.2018 11:00:00 6,0 3,2 4 2 14 7 E 1009,8 50 0,0
21.10.2018 10:00:00 5,6 2,8 4 2 18 10 SE 1010,1 50 0,0
21.10.2018 09:00:00 5,0 2,4 0 0 18 10 N 1010,2 50 0,0
21.10.2018 08:00:00 4,6 2,0 2 1 11 6 E 1010,3 43 0,0
21.10.2018 07:00:00 4,8 1,6 0 0 21 11 N 1011,0 6 0,0
21.10.2018 06:00:00 5,0 2,0 5 3 23 12 E 1011,2 48 0,0
21.10.2018 05:00:00 5,8 1,9 10 6 23 12 S 1011,4 50 0,0
21.10.2018 04:00:00 5,1 1,0 5 3 11 6 SE 1012,9 50 0,0
21.10.2018 03:00:00 4,7 0,8 4 2 17 9 NE 1013,3 30 0,0
21.10.2018 02:00:00 2,3 -0,6 0 0 17 9 N 1015,1 50 0,0
21.10.2018 01:00:00 0,7 -1,5 0 0 10 5 N 1016,4 29 0,0
21.10.2018 00:00:00 -0,3 -1,6 2 1 6 3 SSE 1017,6 0,2 0,0
20.10.2018 23:00:00 -1,1 -3,1 0 0 6 3 N 1018,1 0,5 0,0
20.10.2018 22:00:00 -1,3 -4,1 0 0 6 3 N 1018,7 32 0,0
20.10.2018 21:00:00 -0,7 -2,1 0 0 4 2 N 1019,5 1,7 0,0
20.10.2018 20:00:00 1,0 -0,3 0 0 5 3 N 1019,9 50 0,0
20.10.2018 19:00:00 3,1 0,5 0 0 8 4 N 1020,0 50 0,0
20.10.2018 18:00:00 4,7 0,3 0 0 9 5 N 1019,9 50 0,0
20.10.2018 17:00:00 7,8 1,6 3 1 11 6 W 1019,9 50 0,0
20.10.2018 16:00:00 7,4 1,3 3 2 13 7 NW 1019,7 50 0,0
20.10.2018 15:00:00 8,8 1,7 0 0 19 10 N 1019,8 50 0,0
20.10.2018 14:00:00 9,2 3,2 8 4 19 10 SW 1019,8 50 0,0
20.10.2018 13:00:00 7,3 2,2 3 2 13 7 W 1019,9 50 0,0
20.10.2018 12:00:00 8,3 2,1 5 3 13 7 SW 1019,3 47 0,0
20.10.2018 11:00:00 6,8 1,9 3 2 5 3 WSW 1019,4 50 0,0
20.10.2018 10:00:00 2,8 0,2 0 0 4 2 N 1019,5 48 0,0
20.10.2018 09:00:00 1,8 -0,5 0 0 3 2 N 1018,7 41 0,0
20.10.2018 08:00:00 0,8 -1,3 0 0 3 2 N 1018,3 1,8 0,0
20.10.2018 07:00:00 1,0 -1,2 0 0 3 2 N 1018,0 0,2 0,0
20.10.2018 06:00:00 1,5 -0,6 0 0 5 3 N 1017,7 44 0,0
20.10.2018 05:00:00 1,7 -0,7 0 0 5 3 N 1017,4 50 0,0
20.10.2018 04:00:00 2,8 -0,1 0 0 5 3 N 1017,4 50 0,0
20.10.2018 03:00:00 2,9 1,0 0 0 5 3 N 1017,4 50 0,0
20.10.2018 02:00:00 4,0 1,7 3 2 5 3 N 1017,5 50 0,0
20.10.2018 01:00:00 3,4 1,0 0 0 4 2 N 1018,2 50 0,0
20.10.2018 00:00:00 3,4 1,0 0 0 4 2 N 1018,3 50 0,0
19.10.2018 23:00:00 3,7 1,1 0 0 4 2 N 1018,5 50 0,0
19.10.2018 22:00:00 3,4 0,3 0 0 5 3 N 1018,6 50 0,0
19.10.2018 21:00:00 5,3 1,8 0 0 5 3 N 1018,7 50 0,0
19.10.2018 20:00:00 6,0 2,0 0 0 6 4 N 1018,7 50 0,0
19.10.2018 19:00:00 6,9 2,0 2 1 8 4 N 1018,8 50 0,0
19.10.2018 18:00:00 7,2 1,3 0 0 14 8 N 1018,9 50 0,0
19.10.2018 17:00:00 8,3 2,1 3 2 18 10 W 1018,9 50 0,0
19.10.2018 16:00:00 8,8 1,9 5 3 23 12 W 1019,2 50 0,0
19.10.2018 15:00:00 9,4 1,8 6 4 24 13 W 1019,1 50 0,0
19.10.2018 14:00:00 9,8 1,9 11 6 24 13 WNW 1019,0 48 0,0
19.10.2018 13:00:00 9,7 1,6 9 5 26 14 WNW 1019,2 32 0,0
19.10.2018 12:00:00 8,9 1,6 8 4 - - W 1019,4 38 0,0
19.10.2018 11:00:00 7,8 1,4 5 3 - - W 1019,7 40 -
19.10.2018 10:00:00 7,2 1,1 4 2 16 9 WSW 1019,7 40 0,0
19.10.2018 09:00:00 4,5 0,1 5 3 22 12 NNW 1019,7 41 0,0
19.10.2018 08:00:00 4,9 -0,1 7 4 22 12 W 1018,9 50 0,0
19.10.2018 07:00:00 5,2 -0,2 8 4 29 16 W 1018,6 50 0,0
19.10.2018 06:00:00 5,7 0,1 11 6 29 16 W 1018,6 46 0,0
19.10.2018 05:00:00 6,1 0,2 9 5 27 15 W 1018,3 50 0,0
19.10.2018 04:00:00 6,0 -0,1 8 4 19 11 W 1018,2 50 0,0
19.10.2018 03:00:00 5,9 -0,2 8 4 22 12 W 1017,7 50 0,0
19.10.2018 02:00:00 5,9 -0,2 6 3 32 17 W 1017,6 50 0,0
19.10.2018 01:00:00 5,8 -0,7 9 5 34 18 NW 1017,4 46 0,0
19.10.2018 00:00:00 6,2 -0,1 12 6 37 20 WNW 1016,7 50 0,0
18.10.2018 23:00:00 6,5 0,2 13 7 37 20 W 1016,3 50 0,0
18.10.2018 22:00:00 6,5 -0,3 11 6 37 20 W 1016,5 50 0,0
18.10.2018 21:00:00 6,8 -0,2 10 5 34 18 W 1016,2 50 0,0
18.10.2018 20:00:00 7,3 -0,2 5 3 24 13 NW 1016,1 50 0,0
18.10.2018 19:00:00 7,4 0,1 7 4 23 12 WNW 1015,5 50 0,0
18.10.2018 18:00:00 7,5 -0,2 6 3 29 16 W 1015,2 50 0,0
18.10.2018 17:00:00 8,4 0,1 9 5 34 19 W 1014,8 50 0,0
18.10.2018 16:00:00 9,1 -0,2 13 7 35 19 W 1014,4 50 0,0
18.10.2018 15:00:00 9,4 -0,5 10 5 35 19 W 1014,1 50 0,0
18.10.2018 14:00:00 9,3 -1,2 8 4 32 17 W 1013,9 49 0,0
18.10.2018 13:00:00 9,6 0,7 9 5 31 17 W 1013,6 44 0,0
18.10.2018 12:00:00 7,7 1,1 7 4 18 10 W 1013,7 50 0,0
18.10.2018 11:00:00 6,1 3,3 3 2 6 4 SSW 1014,1 46 0,0
18.10.2018 10:00:00 2,9 1,1 2 1 6 3 NW 1014,2 0,9 0,0
18.10.2018 09:00:00 0,8 -1,1 0 0 6 3 N 1013,8 0,8 0,0
18.10.2018 08:00:00 2,4 0,0 2 1 6 3 ENE 1013,4 23 0,0
18.10.2018 07:00:00 2,2 0,1 0 0 5 3 N 1013,1 39 0,0
18.10.2018 06:00:00 3,3 0,7 0 0 8 4 N 1012,7 8 0,0
18.10.2018 05:00:00 4,2 1,6 0 0 9 5 N 1012,7 50 0,0
18.10.2018 04:00:00 2,5 0,2 4 2 9 5 NNW 1012,8 50 0,0
18.10.2018 03:00:00 4,7 2,1 0 0 8 4 N 1012,8 50 0,0
18.10.2018 02:00:00 2,7 0,8 0 0 14 7 N 1012,6 50 0,0
18.10.2018 01:00:00 5,9 3,2 5 3 14 7 W 1011,9 50 0,0
18.10.2018 00:00:00 3,8 2,9 6 4 9 5 NW 1011,6 50 0,0
17.10.2018 23:00:00 2,5 0,6 0 0 11 6 N 1011,2 1,3 0,0
17.10.2018 22:00:00 - - - - 11 6 - - - -

tt = Température de l'air
td = dewpoint
ff = Vitesse du vent
fx = gusts
dd = Direction du vent
ppp = reduced air pressure
vv = visibility
rr = Quantités de précipitations

stations d'obs. à proximité